This demonstration page uses our WeatherBlox Daily Observations layout. Learn more.

Left ArrowRight Arrow

39.51506, -84.39828

Hourly Observations for March 26, 2018

Temp ( °F °C ) Dew Point ( °F °C ) Humidity (%) Winds ( mph kmh ) Pressure ( in mb ) Visibility ( mi km ) Precip ( " mm )
12:15 am 00:15 Clear 36 2.2 11 -11.9 35 35 ENE 13 20 30.33 1027 10 16.0934 N/A
12:35 am 00:35 Clear 36 2.3 10 -12.1 34 34 ENE 12 19 30.33 1027 10 16.0934 N/A
12:55 am 00:55 Clear 36 2.3 10 -12.3 33 33 ENE 9 15 30.33 1027 10 16.0934 N/A
1:15 am 01:15 Clear 35 1.9 10 -12.2 35 35 ENE 10 17 30.33 1027 10 16.0934 N/A
1:35 am 01:35 Clear 35 1.6 10 -12.2 35 35 ENE 10 17 30.33 1027 10 16.0934 N/A
1:55 am 01:55 Clear 35 1.7 10 -12.4 35 35 ENE 8 13 30.33 1027 10 16.0934 N/A
2:15 am 02:15 Clear 34 1.2 10 -12.2 36 36 NE 7 11 30.3 1026 10 16.0934 N/A
2:35 am 02:35 Partly Cloudy 34 1.2 10 -12 37 37 ENE 8 13 30.3 1026 10 16.0934 N/A
2:55 am 02:55 Partly Cloudy 34 1.2 10 -12 37 37 ENE 7 11 30.33 1027 10 16.0934 N/A
5:15 am 05:15 Partly Cloudy 33 0.8 15 -9.3 47 47 ENE 10 17 30.3 1026 10 16.0934 N/A
5:35 am 05:35 Clear 33 0.8 16 -8.9 49 49 ENE 8 13 30.3 1026 10 16.0934 N/A
5:55 am 05:55 Partly Cloudy 33 0.3 17 -8.5 52 52 ENE 7 11 30.3 1026 10 16.0934 N/A
6:15 am 06:15 Clear 33 0.5 18 -7.9 54 54 NE 6 9 30.33 1027 10 16.0934 N/A
6:35 am 06:35 Partly Cloudy 33 0.7 19 -7.3 55 55 NE 7 11 30.33 1027 10 16.0934 N/A
6:55 am 06:55 Partly Cloudy 33 0.8 19 -7 56 56 NE 7 11 30.33 1027 10 16.0934 N/A
7:15 am 07:15 Cloudy 34 1.3 20 -6.5 56 56 NE 7 11 30.33 1027 10 16.0934 N/A
7:35 am 07:35 Mostly Cloudy 35 1.7 21 -6.3 56 56 NE 6 9 30.36 1028 10 16.0934 N/A
7:55 am 07:55 Sunny 34 1.1 21 -6 60 60 NE 7 11 30.36 1028 10 16.0934 N/A
8:15 am 08:15 Sunny 35 1.7 22 -5.6 59 59 NE 7 11 30.36 1028 10 16.0934 N/A
8:35 am 08:35 Sunny 37 2.5 22 -5.4 56 56 NE 7 11 30.36 1028 10 16.0934 N/A
8:55 am 08:55 Sunny 38 3.5 22 -5.4 53 53 ENE 7 11 30.36 1028 10 16.0934 N/A
9:15 am 09:15 Mostly Cloudy 40 4.5 23 -5.1 50 50 E 7 11 30.36 1028 10 16.0934 N/A
9:35 am 09:35 Cloudy 41 5.1 22 -5.3 47 47 ESE 6 9 30.36 1028 10 16.0934 N/A
9:55 am 09:55 Cloudy 43 6 23 -5 46 46 ESE 13 20 30.36 1028 10 16.0934 N/A
10:15 am 10:15 Cloudy 44 6.6 23 -4.8 44 44 ESE 9 15 30.33 1027 10 16.0934 N/A
10:35 am 10:35 Cloudy 44 6.5 23 -4.8 45 45 SE 10 17 30.36 1028 10 16.0934 N/A
10:55 am 10:55 Cloudy 44 6.7 24 -4.4 45 45 SE 8 13 30.33 1027 10 16.0934 N/A
11:15 am 11:15 Cloudy 44 6.8 24 -4.3 45 45 SE 10 17 30.39 1029 10 16.0934 N/A
11:35 am 11:35 Cloudy 45 7.2 25 -3.8 46 46 SE 7 11 30.36 1028 10 16.0934 N/A
11:55 am 11:55 Cloudy 46 7.5 26 -3.6 46 46 SE 8 13 30.36 1028 10 16.0934 N/A
12:15 pm 12:15 Cloudy 46 7.6 26 -3.5 46 46 SE 12 19 30.36 1028 10 16.0934 N/A
12:35 pm 12:35 Cloudy 46 8 26 -3.2 45 45 ESE 9 15 30.36 1028 10 16.0934 N/A
12:55 pm 12:55 Cloudy 47 8.1 27 -3 46 46 ESE 12 19 30.33 1027 10 16.0934 N/A
1:15 pm 13:15 Cloudy 48 8.7 27 -2.8 45 45 ESE 13 20 30.33 1027 10 16.0934 N/A
1:35 pm 13:35 Cloudy 47 8.5 27 -2.6 46 46 SE 9 15 30.33 1027 10 16.0934 N/A
1:55 pm 13:55 Cloudy 48 8.8 28 -2.4 46 46 ESE 8 13 30.33 1027 10 16.0934 N/A
2:15 pm 14:15 Cloudy 48 9 28 -2.2 46 46 E 8 13 30.33 1027 10 16.0934 N/A
2:35 pm 14:35 Cloudy 49 9.6 29 -1.8 45 45 SE 12 19 30.33 1027 10 16.0934 N/A
2:55 pm 14:55 Cloudy 50 9.8 29 -1.4 46 46 ESE 12 19 30.3 1026 10 16.0934 N/A
3:15 pm 15:15 Cloudy 51 10.5 30 -1.1 45 45 SE 12 19 30.3 1026 10 16.0934 N/A
3:35 pm 15:35 Cloudy 51 10.7 31 -0.8 45 45 ESE 9 15 30.3 1026 10 16.0934 N/A
3:55 pm 15:55 Mostly Cloudy 53 11.9 32 -0.2 44 44 ESE 9 15 30.3 1026 10 16.0934 N/A
4:15 pm 16:15 Mostly Cloudy 54 12 32 undefined 44 44 SE 12 19 30.27 1025 10 16.0934 N/A
4:35 pm 16:35 Partly Cloudy 54 12.1 32 0.2 44 44 ESE 10 17 30.27 1025 10 16.0934 N/A
4:55 pm 16:55 Partly Cloudy 54 12.3 33 0.4 44 44 SE 10 17 30.27 1025 10 16.0934 N/A
5:15 pm 17:15 Partly Cloudy 55 12.5 33 0.6 44 44 ESE 10 17 30.27 1025 10 16.0934 N/A
5:35 pm 17:35 Partly Cloudy 56 13.1 34 1.3 45 45 SSE 12 19 30.27 1025 10 16.0934 N/A
5:55 pm 17:55 Partly Cloudy 56 13.2 34 1.2 44 44 SE 14 22 30.27 1025 10 16.0934 N/A
6:15 pm 18:15 Cloudy 55 12.9 34 1.3 45 45 SE 15 24 30.27 1025 10 16.0934 N/A
6:35 pm 18:35 Partly Cloudy 56 13.1 34 1.3 45 45 ESE 8 13 30.27 1025 10 16.0934 N/A
6:55 pm 18:55 Sunny 55 12.7 34 1.1 45 45 SE 12 19 30.27 1025 10 16.0934 N/A
7:15 pm 19:15 Sunny 55 12.5 34 1 46 46 ESE 9 15 30.27 1025 10 16.0934 N/A
7:35 pm 19:35 Sunny 54 12 33 0.8 47 47 SE 6 9 30.27 1025 10 16.0934 N/A
7:55 pm 19:55 Sunny 53 11.8 33 0.5 46 46 SE 7 11 30.24 1024 10 16.0934 N/A
8:15 pm 20:15 Clear 53 11.4 33 0.3 47 47 SE 7 11 30.24 1024 10 16.0934 N/A
8:35 pm 20:35 Clear 53 11.5 32 -0.1 45 45 SE 7 11 30.27 1025 10 16.0934 N/A
8:55 pm 20:55 Clear 52 11.2 31 -0.3 45 45 SE 6 9 30.27 1025 10 16.0934 N/A
9:15 pm 21:15 Mostly Cloudy 52 11 32 -0.2 46 46 E 3 6 30.27 1025 10 16.0934 N/A
9:35 pm 21:35 Cloudy with Light Rain 51 10.8 32 0.1 48 48 ESE 5 7 30.27 1025 10 16.0934 N/A
9:55 pm 21:55 Cloudy with Light Rain 51 10.4 33 0.3 50 50 ESE 6 9 30.27 1025 10 16.0934 N/A
10:15 pm 22:15 Cloudy with Light Rain 50 10 34 1 54 54 SE 5 7 30.27 1025 10 16.0934 N/A
10:35 pm 22:35 Cloudy with Light Rain 50 10 33 0.6 52 52 SE 7 11 30.24 1024 10 16.0934 N/A
10:55 pm 22:55 Cloudy with Light Rain 49 9.6 34 0.9 55 55 SSE 7 11 30.24 1024 10 16.0934 N/A
11:15 pm 23:15 Cloudy with Light Rain 48 9.1 34 1.3 58 58 SSE 9 15 30.24 1024 10 16.0934 N/A
11:35 pm 23:35 Cloudy with Light Rain 47 8.3 36 2 65 65 SE 7 11 30.21 1023 10 16.0934 0.01 0.254
11:55 pm 23:55 Cloudy with Light Rain 47 8.3 35 1.9 64 64 SSE 8 13 30.21 1023 10 16.0934 0.01 0.254

Powered by AerisWeather